Free Severe Weather Alerts by Email and Text Message   

 
Follow iAlert.com on twitter @ialertcom
Search For Active Alerts in Your Area  
  Hi Guest:  [ Sign-up / Services ] [ Login ]

Current weather by "City, St" or "zip code"  

 

Advertise Here

Hazardous Weather Conditions

No active alerts for NEW YORK, NEW YORK

Current Conditions: NEW YORK, NEW YORK

Overcast


72.0 F

Last Updated on Oct 23 2017, 12:51 pm EDT
Humidity: 66%
Wind Speed: 6.9 mph
Barometer 30.25 in
Dewpoint: 60.1 F
Visibility: 10.00 mi
Precip: --
Heat Index: NA
Wind Chill: NA
Current conditions at:

New York City, Central Park, NY (KNYC)

Lat: 40.78 Lon: -73.966

Local Radar Image active severe weather and emergency alerts image image weather storm and storm spotter reports image weather observation monitoring service image
Local
Radar
Active
Alerts
Storm Reports Weather
Monitoring

Weather Alert Notification Services


ialert severe weather and emergency alerts by text message and email ialert daily weather forecast by email and text message service ialert real-time weather-observation monitoring and alert notification service ialert storm report monitoring alert notification

Observation History for NEW YORK, NEW YORK


Time Wind
(mph)
Vis
(mi)
Weather Precip (in) Temperature (F) Relative
Humidity
Wind
Chill
(°F)
Heat
Index
(°F)
Pressure
Air Dwpt altimeter
(in)
sea level
(mb)
12:51 pm EDT 6.9 10.00 Overcast -- 72.0 60.1 66% NA NA 30.25 1023.5
10:51 am EDT 3.5 10.00 Fair -- 70.0 62.1 76% NA NA 30.29 1024.7
9:51 am EDT S 6.9 10.00 Mostly Cloudy -- 68.0 62.1 81% NA NA 30.31 1025.5
8:51 am EDT 3.5 8.00 Overcast -- 66.0 62.1 87% NA NA 30.33 1026.3
7:51 am EDT 3.5 8.00 Mostly Cloudy -- 64.0 61.0 90% NA NA 30.32 1026.0
6:51 am EDT 4.6 10.00 Overcast -- 64.0 61.0 90% NA NA 30.33 1026.1
5:51 am EDT N 0.0 10.00 Mostly Cloudy -- 64.0 61.0 90% NA NA 30.34 1026.6
4:51 am EDT N 0.0 9.00 Mostly Cloudy -- 63.0 61.0 93% NA NA 30.34 1026.6
3:51 am EDT S 4.6 8.00 Overcast -- 62.0 60.1 93% 62 NA 30.35 1026.7
2:51 am EDT S 4.6 9.00 Mostly Cloudy -- 62.0 59.0 90% 62 NA 30.36 1027.0
1:51 am EDT N 0.0 10.00 Fair -- 62.0 59.0 90% NA NA 30.37 1027.6
12:51 am EDT 3.5 10.00 Fair -- 62.0 57.9 86% NA NA 30.39 1028.1
11:51 pm EDT N 0.0 10.00 Fair -- 62.0 57.0 84% NA NA 30.40 1028.5
10:51 pm EDT 3.5 10.00 Fair -- 63.0 54.0 73% NA NA 30.40 1028.6
9:51 pm EDT N 0.0 10.00 Fair -- 64.0 52.0 65% NA NA 30.40 1028.7
8:51 pm EDT 4.6 10.00 Fair -- 64.0 51.1 63% NA NA 30.40 1028.4
7:51 pm EDT S 5.8 10.00 Fair -- 64.0 52.0 65% NA NA 30.39 1028.2
6:51 pm EDT 3.5 10.00 Fair -- 65.0 50.0 59% NA NA 30.38 1027.8
5:51 pm EDT 10.00 Fair -- 67.0 53.1 61% NA NA 30.38 1027.8
4:51 pm EDT 3.5 10.00 Fair -- 70.0 48.9 47% NA NA 30.38 1028.0
3:51 pm EDT 4.6 10.00 Fair -- 73.0 43.0 34% NA NA 30.38 1028.0
2:51 pm EDT S 3.5 10.00 Fair -- 75.0 41.0 29% NA NA 30.39 1028.1

Regional Weather Observation:


New York, La Guardia Airport, NY (KLGA)

Mostly Cloudy
74.0 F

Newark, Newark International Airport, NJ (KEWR)

Mostly Cloudy
74.0 F

New York, Kennedy International Airport, NY (KJFK)

Mostly Cloudy
70.0 F

Teterboro, Teterboro Airport, NJ (KTEB)

Overcast
75.0 F

Caldwell, Essex County Airport, NJ (KCDW)

Mostly Cloudy
74.0 F

Morristown Municipal, NJ (KMMU)

Mostly Cloudy
73.0 F

Advertise Here


Advertise Here